Simultaneous Nadir Overpasses (SNOs) Predictions

Prediction of SNOs between AQUA and METOP-A Satellite Orbit:

Table of predicted SNOs for the next 14.0 days since TLE Epoch: 8/6/2016
Index Date (AQUA) Time (AQUA) Lat,Lon (AQUA) SZA (AQUA ) Date (METOP-A) Time (METOP-A) Lat,Lon (METOP-A) SZA (METOP-A ) Distance(km) Time Diff (sec)
1 08/06/2016 12:37:28 73.83, -15.19 57.40 08/06/2016 12:36:17 73.83, -15.18 57.41 0.05 71
2 08/06/2016 13:26:55 -73.89, 152.33 122.53 08/06/2016 13:26:58 -73.89, 152.29 122.52 1.27 3
3 08/06/2016 14:16:24 73.98, -40.25 57.59 08/06/2016 14:17:36 73.96, -40.22 57.55 3.01 72
4 08/09/2016 08:11:42 73.84, 51.23 58.21 08/09/2016 08:10:37 73.84, 51.24 58.22 0.65 65
5 08/09/2016 09:01:09 -73.89,-141.25 121.73 08/09/2016 09:01:18 -73.90,-141.28 121.72 1.29 9
6 08/09/2016 09:50:41 74.15, 25.81 58.56 08/09/2016 09:51:52 74.16, 26.69 58.53 26.69 71
7 08/12/2016 03:45:57 73.86, 117.63 59.06 08/12/2016 03:44:58 73.84, 117.66 59.05 2.41 59
8 08/12/2016 04:35:24 -73.91, -74.84 120.88 08/12/2016 04:35:39 -73.90, -74.86 120.89 0.80 15
9 08/12/2016 05:25:00 74.37, 91.72 59.64 08/12/2016 05:26:08 74.41, 93.73 59.59 60.27 68
10 08/14/2016 23:20:11 73.83,-175.88 59.89 08/14/2016 23:19:19 73.84,-175.93 59.91 1.82 52
11 08/15/2016 00:09:39 -73.93, -8.45 120.00 08/15/2016 00:10:00 -73.91, -8.45 120.02 2.54 21
12 08/15/2016 00:59:20 74.65, 157.48 60.81 08/15/2016 01:00:24 74.65, 160.79 60.68 97.54 64
13 08/17/2016 18:54:25 73.87,-109.51 60.81 08/17/2016 18:53:39 73.84,-109.52 60.80 3.05 46
14 08/17/2016 19:43:52 -73.91, 58.04 119.13 08/17/2016 19:44:20 -73.90, 57.96 119.14 2.35 28




NCC Satellite Simultaneous Nadir Overpasses (SNOs) Prediction Service
